Location: Arpaise
(41.0333°N, 14.7333°E)
Time: 17:14:33
(UTC+00:00)

Cosmos 1295 Rocket - Pass Details

Date: 05 July 2020
Orbit: 944 x 994 km, 82.9° (Epoch: 11 August)

Event Time Altitude Azimuth Distance (km) Brightness Sun altitude
Exits shadow 22:06:29 49° 206° (SSW) 1,214 4.6 -24.8°
Maximum altitude 22:08:12 75° 278° (W) 990 4.5 -24.9°
Drops below altitude 10° 22:14:20 10° 4° (N) 2,681 7.7 -25.2°
Sets 22:16:50 0° 6° (N) 3,626 8.6 -25.3°
